Regional Weather Roundup
Issued by NWS

Home | Current Version | Previous Version | Graphics & Text | Print | Product List | Glossary On
Versions: 1 2 3 4 5 6 7 8 9 10 11 12 13 14 15 16 17 18 19 20 21 22 23 24 25 26 27 28 29 30 31 32 33 34 35 36 37 38 39 40 41 42 43 44 45 46 47 48 49 50
000
ASUS45 KSLC 262110
RWRUT

UTAH REGIONAL WEATHER ROUNDUP
NATIONAL WEATHER SERVICE SALT LAKE CITY UT
200 PM MST SUN FEB 26 2017

UTZ001>011-023>025-262200-

NORTHERN UTAH

CITY           SKY/WX    TMP DP  RH WIND       PRES   REMARKS
BRIGHAM CITY     N/A     36  17  44 SW14      29.84F WCI  27
HILL AFB       SUNNY     33  12  41 S18       29.81F WCI  22
LOGAN          MOSUNNY   31  18  58 N3        29.83F
OGDEN          SUNNY     34  15  46 S17       29.82F WCI  23
SALT LAKE CITY MOSUNNY   38  16  40 S18G25    29.83F WCI  28
TOOELE VALLEY  SUNNY     41  19  42 S18       29.82F
WENDOVER       SUNNY     36  21  55 NE7       29.79F WCI  30
HEBER CITY     SUNNY     25   9  50 W3        29.81F
WEST JORDAN    SUNNY     37  26  65 S15G21    29.83F WCI  28

$$

UTZ011>015-024>027-262200-

CENTRAL/NORTHEAST UTAH

CITY           SKY/WX    TMP DP  RH WIND       PRES   REMARKS
PROVO AIRPORT  SUNNY     32  16  51 SW3       29.85F
MOAB/CANYONLAN MOSUNNY   42  12  29 VRB3      29.86F
DELTA          SUNNY     37  23  56 S13       29.81F WCI  29
PRICE          SUNNY     33  14  45 S7        29.83F WCI  27
ROOSEVELT      SUNNY     28   9  43 N3        29.90F
VERNAL         SUNNY     26   9  48 CALM      29.87F

$$

UTZ013>016-019>022-027-262200-

SOUTHERN UTAH

CITY           SKY/WX    TMP DP  RH WIND       PRES   REMARKS
BRYCE CANYON   PTSUNNY   31   8  38 SW14G20   29.82F WCI  21
CEDAR CITY     CLOUDY    43  14  31 SW14G24   29.80F
MILFORD        MOSUNNY   45  22  40 SW23G31   29.79F
ST GEORGE      CLEAR     52  23  32 VRB6      29.85F
HANKSVILLE     SUNNY     45  16  31 E7        29.88F
BLANDING       MOSUNNY   40  13  33 SW12G18   29.94F WCI  34

$$

REGIONAL REPORTS     COLORADO/ARIZONA

CITY           SKY/WX    TMP DP  RH WIND       PRES   REMARKS
CRAIG, CO      SUNNY     30   2  30 W17G26    29.84F WCI  18
GRAND JUNCTION SUNNY     41   8  25 SW9       29.88F
RIFLE, CO      SUNNY     37   3  24 NW14G21   29.86F WCI  28
MONTROSE, CO   CLOUDY    37   7  28 VRB3      29.89F
CORTEZ, CO     MOSUNNY   42  12  29 W15G21    29.88F
COLORADO CITY    N/A     50  21  32 SE3       29.87F
PAGE, AZ       CLOUDY    49  14  24 NE7       29.86F
GRAND CANYON   CLOUDY    40  18  41 SW10      29.87F WCI  33
KINGMAN, AZ    SUNNY     54  12  18 W14       29.89F
FLAGSTAFF, AZ  PTSUNNY   35  22  58 SW15G23   29.88F WCI  25

$$

REGIONAL REPORTS    NEVADA/IDAHO/WYOMING

CITY           SKY/WX    TMP DP  RH WIND       PRES   REMARKS
LAS VEGAS, NV  MOSUNNY   58  19  22 E7G22     29.85F
ELY, NY        MOSUNNY   34  15  46 SW10      29.77F WCI  26
ELKO, NV       SUNNY     39  13  34 SW14G22   29.73F WCI  31
POCATELLO, ID  MOSUNNY   30  18  60 S18G26    29.78F WCI  18
BURLEY, ID     SUNNY     38  15  39 SW21      29.74F WCI  28
FORT BRIDGER,    N/A     24   8  51 W12       29.79F WCI  13
EVANSTON, WY   SUNNY     20   6  55 SW20      29.74F WCI   4
ROCK SPRINGS,  SUNNY     21   6  52 W14       29.79F WCI   8

$$



USA.gov is the U.S. government's official web portal to all federal, state and local government web resources and services.